Flag for Colombia Weather past 2 weeks in Villavicencio, Colombia

Now
61 °F

Scattered showers. Scattered clouds.


Feels Like: 61 °F
Forecast: N/A
Wind: 8 mph from Southeast

Location: Bogota / Eldorado

Current Time: Feb 1, 2015 at 6:01:30 PM

Latest Report: Feb 1, 2015 at 5:00 PM


Visibility: N/A

Pressure: 30.27 "Hg

Humidity: 68%

Dew point: 50 °F

Location of VillavicencioLocation

Historic Weather in Villavicencio — Graph

°F

Villavicencio temperature yesterday

Maximum temperature yesterday: 64 °F (at 2:00 PM)
Minimum temperature yesterday: 52 °F (at 3:00 AM)
Average temperature yesterday: 58 °F

Past Weeks' High & Low Weather Summary

 TemperatureHumidityPressure
High70 °F (Jan 25, 1:00 PM)100% (Jan 18, 2:00 AM)30.40 "Hg (Jan 18, 2:00 AM)
Low37 °F (Jan 30, 5:00 AM)38% (Jan 25, 12:00 PM)30.19 "Hg (Jan 25, 4:00 PM)
Average57 °F77%30.30 "Hg
* Reported Jan 17 5:00 PM — Feb 1 5:00 PM, Villavicencio, Weather by CustomWeather, © 2014

Note: Actual official high and low records may vary slightly from our data, if they occured in-between our weather recording intervals... More about our weather records

Advertising

Villavicencio weather history for previous 24 hours

 ConditionsComfort  
Time TempWeatherWind HumidityBarometerVisibility
5:00 PM
Feb 1
61 °FScattered showers. Scattered clouds.8 mph68%30.27 "HgN/A
4:00 PM63 °FScattered clouds.7 mph59%30.27 "HgN/A
3:00 PM63 °FScattered clouds.13 mph59%30.28 "HgN/A
2:00 PMN/AScattered showers.5 mphN/A30.29 "HgN/A
1:00 PM63 °FScattered showers. Partly sunny.8 mph59%30.32 "HgN/A
12:00 PM63 °FBroken clouds.8 mph56%30.34 "HgN/A
11:00 AM64 °FBroken clouds.10 mph52%30.37 "HgN/A
10:00 AM61 °FScattered showers. Broken clouds.9 mph59%30.38 "HgN/A
9:00 AM57 °FScattered showers. Cloudy.9 mph67%30.38 "HgN/A
8:00 AM57 °FBroken clouds.7 mph72%30.37 "HgN/A
7:00 AM55 °FScattered clouds.6 mph82%30.34 "HgN/A
6:00 AM54 °FPassing clouds.5 mph88%30.31 "HgN/A
5:00 AM54 °FPassing clouds.5 mph88%30.30 "HgN/A
4:00 AM54 °FPassing clouds.7 mph88%30.29 "HgN/A
3:00 AM54 °FPassing clouds.6 mph88%30.29 "HgN/A
2:00 AM54 °FPassing clouds.6 mph88%30.30 "HgN/A
1:00 AM54 °FPassing clouds.5 mph88%30.33 "Hg4 mi
12:00 AM54 °FPassing clouds.6 mph88%30.34 "Hg4 mi
11:00 PM
Jan 31
54 °FPassing clouds.2 mph88%30.34 "HgN/A
10:00 PM57 °FPassing clouds.9 mph72%30.35 "HgN/A
9:00 PM55 °FPassing clouds.3 mph77%30.33 "HgN/A
8:00 PM55 °FPassing clouds.5 mph77%30.30 "HgN/A
7:00 PM57 °FPassing clouds.2 mph67%30.27 "HgN/A
6:00 PM61 °FPassing clouds.2 mph59%30.24 "HgN/A
Weather by CustomWeather, © 2014

See weather overviewHow to use our weather pages